Flag for Germany Weather past 2 weeks in Homberg (Efze), Hesse, Germany

Now
49 °F

Overcast.


Feels Like: 46 °F
Forecast: 45 / 51 °F
Wind: 6 mph from Southwest

Location: Fritzlar

Current Time: Mar 28, 2015 at 7:14:28 PM

Latest Report: Mar 28, 2015 at 6:00 PM


Visibility: 13 mi

Pressure: 29.96 "Hg

Humidity: 68%

Dew point: 38 °F

Location of Homberg (Efze)Location

Historic Weather in Homberg (Efze) — Graph

°F

Homberg (Efze) temperature yesterday

Maximum temperature yesterday: 46 °F (at 1:00 PM)
Minimum temperature yesterday: 37 °F (at 5:00 AM)
Average temperature yesterday: 43 °F

Past Weeks' High & Low Weather Summary

 TemperatureHumidityPressure
High64 °F (Mar 25, 4:00 PM)98% (Mar 20, 8:00 AM)30.37 "Hg (Mar 20, 8:00 AM)
Low26 °F (Mar 23, 6:00 AM)40% (Mar 25, 3:00 PM)29.59 "Hg (Mar 25, 4:00 PM)
Average41 °F78%30.13 "Hg
* Reported Mar 13 6:00 PM — Mar 28 6:00 PM, Homberg (Efze), Weather by CustomWeather, © 2015

Note: Actual official high and low records may vary slightly from our data, if they occured in-between our weather recording intervals... More about our weather records

Advertising

Homberg (Efze) weather history for previous 24 hours

 ConditionsComfort  
Time TempWeatherWind HumidityBarometerVisibility
6:00 PM
Sat, Mar 28
49 °FOvercast.6 mph68%29.96 "Hg13 mi
5:00 PM50 °FLight rain. Overcast.6 mph61%29.97 "Hg11 mi
4:00 PM53 °FLight rain. Overcast.7 mph46%29.98 "Hg16 mi
3:00 PM54 °FOvercast.7 mph42%29.99 "Hg16 mi
2:00 PM53 °FScattered clouds.8 mph45%30.02 "Hg16 mi
1:00 PM53 °FScattered clouds.7 mph46%30.06 "Hg16 mi
12:00 PM49 °FScattered clouds.7 mph52%30.11 "Hg16 mi
11:00 AM50 °FScattered clouds.6 mph53%30.13 "Hg16 mi
10:00 AM46 °FPassing clouds.3 mph66%30.17 "Hg11 mi
9:00 AM40 °FPassing clouds.2 mph80%30.19 "Hg9 mi
8:00 AM34 °FPassing clouds.1 mph87%30.22 "Hg9 mi
7:00 AM29 °FPassing clouds.2 mph94%30.24 "Hg9 mi
6:00 AM32 °FPassing clouds.2 mph88%30.23 "Hg9 mi
5:00 AM32 °FPassing clouds.2 mph89%30.24 "Hg9 mi
4:00 AM33 °FPassing clouds.2 mph89%30.24 "Hg11 mi
3:00 AM34 °FPassing clouds.1 mph87%30.24 "Hg11 mi
2:00 AM37 °FPassing clouds.3 mph80%30.24 "Hg12 mi
1:00 AM42 °FOvercast.2 mph71%30.22 "Hg12 mi
12:00 AM42 °FLight rain. Overcast.2 mph73%30.22 "Hg16 mi
11:00 PM
Fri, Mar 27
43 °FOvercast.2 mph71%30.20 "Hg16 mi
9:00 PM44 °FOvercast.5 mph65%30.18 "Hg16 mi
8:00 PM44 °FOvercast.2 mph68%30.15 "Hg12 mi
7:00 PM45 °FOvercast.6 mph64%30.13 "Hg12 mi
Weather by CustomWeather, © 2015

See weather overviewHow to use our weather pages